Back to catalog

GLOBALSTAR M092

AliveCommunicationsLEO
NORAD 38043·PAYLOAD·🇺🇸 United States

Launched Dec 28, 2011 from Baikonur Cosmodrome

Loading…

Next Passes (next 24 hours)

TLE

FreshSource: Space-Track

Epoch: Sep 14, 2026, 11:50 UTC

1 38043U 11080D   26257.49336951 -.00000135  00000-0 -17363-3 0  9994
2 38043  52.0073 153.0637 0000720  69.8501 101.1432 12.62265999679320

Track GLOBALSTAR M092 in real time with AllMySat

Download on the App Store